Probability
18 12 7 4 1 0 0 0 0 0 0 0 0 0 0 0 0 0 0 0 0 0 0 0 0 0 0 0 0 0 0 0 0 0 0 0 0 0 0 0 0 0 0
22 13 7 4 1 0 0 0 0 0 0 0 0 0 0 0 0 0 0 0 0 0 0 0 0 0 0 0 0 0 0 0 0 0 0 0 0 0 0 0 0 0 0
21 11 5 3 1 0 0 0 0 0 0 0 0 0 0 0 0 0 0 0 0 0 0 0 0 0 0 0 0 0 0 0 0 0 0 0 0 0 0 0 0 0 0
14 8 3 3 2 1 1 0 0 0 0 0 0 0 0 0 0 0 0 0 0 0 0 0 0 0 0 0 0 0 0 0 0 0 0 0 0 0 0 0 0 0 0
10 5 2 3 3 2 1 0 0 0 0 1 1 0 0 0 0 0 0 0 0 0 0 0 0 0 0 0 0 0 0 0 0 0 0 0 0 0 0 0 0 0 0
10 6 3 4 5 3 1 0 1 1 1 2 2 1 1 1 1 1 1 0 0 0 0 0 0 0 0 0 0 0 0 0 0 0 0 0 0 0 0 0 0 0 0
19 14 9 9 9 6 2 1 2 2 2 2 3 3 2 2 3 3 3 1 0 0 0 0 0 0 0 0 0 0 0 0 0 0 0 0 0 0 0 0 0 0 0
35 27 18 15 14 9 5 3 2 3 3 3 4 4 3 4 4 4 5 4 1 0 1 1 0 0 0 0 0 0 0 0 0 0 0 1 2 1 0 0 0 0 0
50 41 27 21 18 12 8 6 4 4 3 4 4 4 5 6 6 7 11 11 9 6 5 4 2 1 1 0 0 0 0 0 0 0 1 7 12 9 3 1 0 0 0
59 52 37 26 23 15 10 9 8 6 5 5 5 7 9 9 10 14 20 25 25 20 16 11 8 6 5 2 0 0 0 0 0 0 2 16 32 29 14 5 1 0 0
61 58 45 37 31 18 16 20 17 12 12 12 12 17 17 14 14 21 34 48 49 41 33 27 21 18 13 7 3 3 1 0 0 0 6 30 54 52 31 14 4 1 0
55 54 53 55 47 29 31 40 30 24 30 28 27 34 33 22 18 28 53 72 73 63 54 48 41 32 22 12 12 14 8 2 0 0 13 47 72 68 48 26 12 5 1
45 43 55 72 67 49 52 56 44 42 55 54 49 57 56 44 36 45 70 88 87 79 70 63 57 45 28 19 24 29 19 6 2 1 21 59 82 78 59 37 21 11 5
48 44 58 81 84 72 69 69 60 60 72 77 75 78 79 74 66 69 81 90 90 85 76 68 64 54 39 30 34 36 26 14 6 5 26 60 81 79 63 41 25 16 11
68 63 69 86 91 85 82 81 77 78 83 88 90 92 92 92 88 85 86 88 88 85 78 72 68 65 58 49 41 37 31 22 14 14 30 54 69 70 60 42 27 19 14
85 82 82 86 90 91 90 88 88 87 88 90 93 94 95 94 93 90 86 85 85 83 79 75 72 73 71 61 46 36 34 29 25 26 36 49 58 59 54 45 34 23 15
92 91 88 87 89 92 92 90 89 87 87 89 91 91 88 86 87 85 82 80 80 77 75 73 73 73 68 59 45 33 32 35 35 35 38 46 49 46 44 44 41 32 21
95 94 90 88 90 91 91 89 85 84 86 87 86 82 76 73 73 73 72 74 75 72 67 65 65 61 56 49 39 30 32 37 38 33 34 38 38 35 33 35 39 34 26
91 92 90 89 88 88 85 82 79 80 83 83 78 72 65 61 60 61 64 68 69 64 57 52 50 47 45 40 31 27 31 34 32 26 25 27 28 28 26 26 29 25 19
80 83 83 82 81 80 76 74 74 75 75 73 70 63 57 54 52 52 55 58 56 49 44 39 34 33 36 34 26 21 23 24 23 22 20 20 20 20 19 24 27 21 13
58 62 63 65 68 69 68 67 68 68 64 61 58 51 45 43 42 40 41 42 40 36 33 30 26 26 26 26 21 17 14 13 14 16 17 16 13 12 16 26 33 26 16
32 36 42 48 53 56 58 56 55 56 53 49 45 41 34 29 27 26 28 28 28 29 27 24 24 22 18 16 14 11 8 7 7 9 12 13 9 10 16 25 32 29 21
15 21 31 39 42 44 45 45 43 44 43 40 37 34 27 20 16 16 17 19 22 24 24 23 24 21 14 12 10 7 4 4 6 7 8 8 8 11 13 16 23 25 21
9 16 27 35 38 39 40 40 39 37 36 34 32 29 24 17 12 11 12 14 17 19 20 22 24 23 18 14 11 7 5 6 8 9 6 5 7 11 9 8 13 18 18
10 15 27 39 43 44 44 42 39 38 35 32 29 24 19 14 11 10 10 11 12 12 13 16 19 21 21 17 14 14 12 13 13 10 6 4 4 6 6 5 7 12 16
12 16 28 44 51 51 49 45 41 42 39 32 27 21 15 12 10 10 9 9 9 8 8 10 12 15 18 17 17 19 20 19 16 11 6 3 2 2 4 6 6 9 13
Wind_Speed
19 19 19 17 14 13 13 13 13 13 12 12 11 11 11 11 11 11 11 11 11 11 11 10 10 9 9 9 10 11 11 12 12 13 13 13 12 11 10 10 12 13 15
22 19 19 17 15 13 13 13 13 13 12 12 11 11 11 11 11 10 10 10 9 9 10 10 9 9 9 9 9 9 9 9 10 11 12 12 11 9 8 7 12 10 14
21 18 17 16 15 13 13 13 12 12 12 12 12 11 11 10 10 10 9 9 8 8 9 9 9 9 9 9 8 8 7 7 7 8 9 9 9 9 10 14 16 14 13
20 17 16 17 15 14 13 12 12 12 12 12 12 11 11 10 10 9 9 8 8 8 9 9 8 8 8 8 7 7 6 5 5 6 5 6 8 11 11 12 13 12 12
18 16 17 18 15 14 13 12 12 12 12 12 12 11 11 10 10 9 9 8 8 7 8 8 8 8 7 7 6 6 5 4 4 7 3 6 8 10 10 10 11 11 11
18 17 18 17 16 14 13 12 12 12 12 11 11 10 10 10 10 9 9 8 8 8 8 8 7 7 7 6 6 5 4 5 6 7 4 8 9 10 11 10 9 10 10
18 18 17 17 16 14 13 12 11 11 11 10 10 10 9 9 9 9 9 8 8 8 8 8 7 7 7 7 6 6 5 6 7 5 2 8 11 12 11 10 9 9 9
19 18 16 17 16 14 13 12 11 11 10 10 10 10 9 9 9 9 9 9 8 8 8 8 8 8 8 7 7 7 7 8 8 7 4 9 15 14 12 11 9 9 9
20 19 15 15 14 14 13 12 11 11 10 10 10 10 9 9 9 9 9 9 9 9 8 9 9 9 9 9 9 9 9 10 9 7 5 8 16 16 14 12 11 11 10
19 18 15 15 13 12 11 12 12 11 11 10 10 10 10 10 10 11 10 11 11 10 10 10 10 10 10 11 11 11 11 9 9 10 4 9 19 18 16 14 12 12 12
15 16 15 16 13 12 12 13 12 11 11 10 10 11 10 9 10 11 14 14 15 13 13 12 12 12 12 12 13 13 11 7 9 8 5 12 20 19 18 15 13 13 13
11 14 12 14 12 11 10 11 9 9 10 9 8 10 9 8 8 10 14 17 17 16 15 14 13 12 11 9 13 15 7 10 10 8 6 17 20 19 18 16 15 14 14
8 7 12 12 10 8 5 8 6 6 7 10 10 9 8 7 6 6 5 9 11 13 10 11 12 9 9 8 6 9 10 9 7 7 6 20 21 20 19 17 16 15 14
5 4 5 10 8 3 2 3 3 3 4 5 6 7 6 3 3 3 2 4 7 6 8 7 6 9 10 9 8 9 11 8 6 4 5 18 18 19 19 18 17 16 15
5 3 4 7 6 3 2 3 1 1 1 1 2 4 3 3 4 4 3 2 4 4 6 6 5 6 7 7 7 7 8 8 8 6 4 15 17 16 17 18 18 18 17
6 5 5 5 6 3 1 1 2 3 2 3 1 1 2 3 3 3 4 4 4 4 3 3 5 4 5 5 6 7 7 7 7 6 5 10 16 17 17 18 18 19 19
7 7 5 4 4 3 0 1 2 3 3 2 2 2 2 4 4 4 4 5 5 5 4 4 5 4 5 6 7 8 6 7 7 7 6 5 8 16 18 18 18 18 19
8 7 6 4 5 3 2 1 2 3 3 3 3 2 3 3 4 5 5 6 5 5 4 4 4 4 4 5 5 6 6 6 8 8 7 6 6 8 14 20 19 19 19
8 7 6 5 5 4 2 1 2 2 2 2 2 2 3 4 4 4 4 5 5 4 4 6 4 4 5 5 6 6 6 6 7 9 9 9 8 8 7 15 20 20 20
7 6 5 5 4 3 2 1 1 2 2 1 1 2 4 3 4 4 4 4 5 4 4 5 4 4 4 4 7 6 5 6 6 7 9 8 8 10 9 10 11 14 19
6 5 4 4 3 2 2 3 3 3 3 2 1 1 2 4 4 3 4 4 4 4 5 5 5 5 5 4 4 4 5 7 7 6 6 6 8 9 9 8 8 8 9
4 3 2 2 2 3 2 2 2 2 3 2 1 1 1 2 3 4 3 3 3 4 4 4 4 3 4 4 4 3 4 4 5 9 6 6 6 5 6 9 8 8 6
3 2 2 2 2 2 3 3 3 3 3 2 2 1 1 2 2 3 3 3 3 3 3 3 4 4 4 3 4 4 3 2 2 4 6 6 6 4 4 5 8 8 7
2 2 2 1 0 2 3 4 5 5 5 4 3 2 1 2 3 3 2 2 2 2 2 3 3 3 3 4 3 4 4 2 1 0 3 4 5 4 3 3 5 7 6
1 1 2 3 2 2 3 5 5 6 5 5 5 5 4 3 4 3 2 1 2 2 2 2 3 3 2 3 3 3 4 4 4 2 2 2 3 3 3 3 2 3 5
3 3 3 2 2 2 3 5 5 6 6 7 7 7 6 4 4 4 4 3 2 1 1 1 2 2 2 3 3 3 2 2 2 3 3 4 4 4 5 4 4 3 3
Wind_Direction
121 134 137 134 132 133 136 142 144 143 138 133 130 127 123 119 116 113 110 108 106 105 105 105 104 99 92 85 83 84 86 88 90 92 94 93 92 92 94 105 112 100 105
123 133 136 134 134 134 136 140 144 145 143 139 136 134 132 129 127 125 122 119 116 112 109 107 106 103 100 96 95 95 97 101 106 111 112 104 95 89 82 85 102 109 111
122 131 137 135 135 135 135 138 141 145 146 144 141 140 139 138 136 134 132 129 126 121 117 115 114 110 107 106 106 107 110 118 129 139 147 126 109 93 85 94 105 112 112
125 137 138 137 137 136 136 137 141 145 148 148 146 145 144 144 143 143 140 137 134 128 124 122 120 119 117 117 118 122 131 148 163 182 198 138 124 108 101 105 112 116 117
128 133 134 142 140 139 138 139 143 146 148 150 151 151 151 151 152 152 149 146 142 138 134 132 129 128 129 130 132 139 158 188 209 233 222 113 108 124 118 117 120 123 124
130 131 138 144 142 143 142 143 147 149 151 153 155 157 158 159 161 161 158 155 152 149 146 144 144 144 145 147 152 164 191 225 243 235 183 131 124 136 134 133 131 132 134
136 131 141 145 145 147 148 150 152 154 156 159 161 164 166 168 169 169 167 166 166 164 163 160 161 160 163 166 175 189 214 242 256 261 167 128 135 145 146 149 148 146 146
135 133 140 146 148 151 154 157 159 161 165 168 171 173 175 177 180 181 179 178 178 178 176 176 176 176 179 183 191 203 224 251 251 249 188 135 145 152 155 160 162 163 162
134 132 145 149 152 155 160 164 168 171 174 177 179 180 184 188 192 195 194 192 192 193 192 191 191 192 193 196 202 211 225 245 274 280 217 143 154 156 162 170 175 176 176
135 139 150 153 155 161 166 172 176 181 184 186 190 192 196 200 205 207 204 201 201 200 201 203 205 206 205 205 209 214 224 241 255 264 248 162 160 162 168 177 185 187 185
139 142 158 153 158 168 171 170 178 187 192 194 200 205 207 213 210 207 215 204 202 204 207 210 213 215 214 214 215 216 219 230 237 244 246 170 166 167 172 181 190 195 195
143 151 156 153 157 175 176 155 180 188 188 200 203 197 206 224 231 223 201 199 201 205 210 214 218 219 219 221 215 213 216 224 241 239 217 169 171 172 176 183 193 200 202
150 162 149 144 150 180 158 157 187 193 177 196 213 201 205 219 231 237 194 187 197 205 211 214 215 219 220 221 213 194 214 223 224 238 199 171 174 177 180 186 195 203 207
156 158 129 132 141 163 130 169 183 197 175 188 194 210 210 217 250 261 245 191 194 203 208 214 204 211 222 225 219 200 209 222 232 234 187 175 178 182 185 190 197 204 208
132 118 82 99 109 107 42 341 316 312 286 228 176 195 223 220 237 252 257 252 244 223 205 209 216 218 222 227 224 216 220 226 232 229 187 181 184 192 193 197 202 208 211
84 67 59 72 88 96 94 322 319 313 317 307 309 255 249 255 241 250 258 249 250 258 255 219 219 227 227 230 231 227 218 229 242 237 208 190 191 197 202 204 207 211 214
73 75 68 82 89 99 110 291 289 290 301 307 325 319 293 283 283 271 262 252 241 243 249 245 240 228 230 228 227 230 224 219 227 231 227 204 197 204 208 209 209 211 214
62 67 61 57 65 67 48 352 316 326 334 338 340 337 313 295 288 278 268 261 246 238 237 234 230 235 237 239 233 231 225 217 221 224 221 215 208 211 211 212 211 211 214
62 64 64 49 42 37 26 352 317 309 315 311 313 324 329 318 305 286 273 269 261 245 238 241 224 224 236 239 235 225 225 221 216 221 218 218 211 210 204 207 209 210 214
72 68 66 62 48 24 13 345 325 318 319 303 318 330 324 316 314 308 293 283 266 249 236 232 232 223 236 241 250 246 223 218 211 213 215 216 211 211 209 202 198 210 213
80 77 70 61 54 25 17 344 340 338 329 321 312 355 331 322 320 306 306 307 288 259 240 234 230 225 230 230 244 258 249 225 214 213 212 214 210 207 206 193 183 189 204
94 94 103 76 38 8 13 320 289 300 294 280 277 203 262 300 306 300 299 296 293 287 268 239 230 227 227 216 214 235 241 230 219 214 200 207 220 206 197 190 182 183 188
117 115 82 62 24 4 338 316 323 306 280 284 290 249 239 272 277 276 287 288 298 296 290 283 252 231 233 241 219 221 237 231 207 209 203 196 194 196 190 184 178 177 190
158 163 147 165 264 310 310 318 317 307 306 310 300 291 282 265 267 258 267 275 280 286 295 291 288 264 243 250 252 238 251 280 283 238 216 185 175 182 197 197 182 173 179
258 258 195 187 215 265 290 292 296 300 308 313 319 309 290 268 246 233 225 241 265 256 262 299 323 312 281 263 260 262 259 248 232 217 223 194 173 177 186 195 179 165 166
254 263 268 237 233 254 269 281 283 290 294 297 297 294 286 266 239 221 208 195 220 244 267 292 299 298 296 287 282 273 265 260 253 237 215 203 191 195 184 178 174 162 149